Home > Weather > Bludenz > Past weeks

Flag for Austria Past Weather in Bludenz, Vorarlberg, Austria — Yesterday and Last 2 Weeks

Now
60 °F

Sprinkles. Cloudy.


Feels Like: 60 °F
Forecast: 62 / 74 °F
Wind: 1 mph from Southeast

Location: Feldkirch

Current Time: May 28, 2016 at 8:09:36 AM

Latest Report: May 28, 2016 at 7:00 AM


Visibility: N/A

Pressure: 29.98 "Hg (28.05 "Hg at 563m altitude)

Humidity: 96%

Dew Point: 58 °F

Location of BludenzLocation

Past Weather in Bludenz — Graph

°F

Bludenz Temperature Yesterday

Maximum temperature yesterday: 77 °F (at 6:00 PM)
Minimum temperature yesterday: 62 °F (at 7:00 AM)
Average temperature yesterday: 69 °F

High & Low Weather Summary for the Past Weeks

 TemperatureHumidityPressure
High84 °F (May 22, 1:00 PM)99% (May 14, 7:00 AM)30.22 "Hg (May 14, 7:00 AM)
Low41 °F (May 16, 6:00 AM)20% (May 22, 2:00 PM)29.50 "Hg (May 13, 7:00 AM)
Average56 °F74%29.96 "Hg
* Reported May 13 7:00 AM — May 28 7:00 AM, Bludenz, Weather by CustomWeather, © 2016

Note: Actual official high and low records may vary slightly from our data, if they occured in-between our weather recording intervals... More about our weather records

Advertising

Bludenz Weather History for the Previous 24 Hours

Scroll right to see more
 ConditionsComfort  
Time TempWeatherWind HumidityBarometerVisibility
7:00 AM
Sat, May 28
60 °FSprinkles. Cloudy.1 mph96%29.98 "HgN/A
6:00 AM60 °FFog.1 mph94%29.99 "HgN/A
5:00 AM59 °FCool.1 mph92%29.98 "HgN/A
4:00 AM61 °FFog.1 mph87%29.93 "HgN/A
3:00 AM63 °FMild.2 mph77%29.90 "HgN/A
2:00 AM64 °FMild.No wind73%29.90 "HgN/A
1:00 AM63 °FMild.2 mph84%29.95 "HgN/A
12:00 AM63 °FMild.2 mph83%29.93 "HgN/A
11:00 PM
Fri, May 27
63 °FMild.1 mph83%29.94 "HgN/A
10:00 PM64 °FMild.1 mph81%29.94 "HgN/A
9:00 PM67 °FMild.1 mph80%29.92 "HgN/A
8:00 PM74 °FMild.1 mph50%29.84 "HgN/A
7:00 PM77 °FWarm.2 mph44%29.84 "HgN/A
6:00 PM77 °FWarm.2 mph44%29.85 "HgN/A
5:00 PM77 °FMild.2 mph49%29.85 "HgN/A
4:00 PM76 °FMild.2 mph49%29.86 "HgN/A
3:00 PM77 °FWarm.2 mph51%29.86 "HgN/A
2:00 PM76 °FMild.2 mph52%29.87 "HgN/A
1:00 PM76 °FMild.3 mph52%29.88 "HgN/A
12:00 PM74 °FMild.1 mph54%29.90 "HgN/A
11:00 AM74 °FPartly sunny.1 mph54%29.92 "Hg19 mi
10:00 AM71 °FMild.No wind51%29.93 "HgN/A
9:00 AM67 °FMild.No wind62%29.93 "HgN/A
8:00 AM64 °FMild.No wind69%29.93 "HgN/A
Weather by CustomWeather, © 2016

See weather overviewHow to use our weather pages